Weather History for New Haven, CT

Change the Weather History Date:

Saturday, February 16, 2013

  Actual Average Record
Temperature  
Mean Temperature 36 °F -  
Max Temperature 39 °F 38 °F 32 °F (2014)
Min Temperature 30 °F 25 °F 23 °F (2014)
Degree Days  
Heating Degree Days 30    
Moisture  
Dew Point 26 °F    
Average Humidity 69    
Maximum Humidity 89    
Minimum Humidity 41    
Precipitation  
Precipitation 0.01 in - - ()
Sea Level Pressure  
Sea Level Pressure 29.89 in    
Wind  
Wind Speed 9 mph (North)    
Max Wind Speed 17 mph    
Max Gust Speed 25 mph    
Visibility 8 miles    
Events Snow    
Averages and records for this station are not official NWS values.
T = Trace of Precipitation, MM = Missing Value Source: NWS Daily Summary

Daily Weather History Graph

Daily Weather History Graph

Search for Another Location

Airport:

Trip Planner

Search our weather history database for the weather conditions in past years. The results will help you decide how hot, cold, wet, or windy it might be!

Date:

Astronomy

Feb. 16, 2013 Rise Set
Actual Time 6:44 AM EST 5:27 PM EST
Civil Twilight 6:16 AM EST 5:55 PM EST
Nautical Twilight 5:44 AM EST 6:27 PM EST
Astronomical Twilight 5:12 AM EST 6:59 PM EST
Moon 9:51 AM EST (2/16) No Moon Set
Length of Visible Light 11h 38m
Length of Day
10h 42m
Waxing Crescent, 39% of the Moon is Illuminated
Feb 16
Waxing Crescent
Feb 17
First Quarter
Feb 25
Full
Mar 4
Last Quarter
Mar 11
New

Hourly Weather History & Observations

Time (EST) Temp. Windchill Dew Point Humidity Pressure Visibility Wind Dir Wind Speed Gust Speed Precip Events Conditions
12:53 AM 37.9 °F - 34.0 °F 86% 29.93 in 6.0 mi Calm Calm - N/A   Overcast
1:53 AM 39.9 °F 34.5 °F 33.1 °F 77% 29.93 in 9.0 mi NNW 8.1 mph - N/A   Overcast
2:53 AM 39.0 °F 33.4 °F 30.0 °F 70% 29.93 in 10.0 mi North 8.1 mph - N/A   Overcast
3:53 AM 36.0 °F 26.3 °F 30.0 °F 79% 29.93 in 10.0 mi North 16.1 mph 20.7 mph 0.00 in   Overcast
4:19 AM 35.6 °F 26.6 °F 30.2 °F 81% 29.93 in 2.5 mi North 13.8 mph - 0.00 in Snow Light Snow
4:29 AM 35.6 °F 27.1 °F 30.2 °F 81% 29.93 in 3.0 mi North 12.7 mph - 0.00 in Snow Light Snow
4:42 AM 35.6 °F 28.6 °F 30.2 °F 81% 29.92 in 2.0 mi North 9.2 mph - 0.00 in Snow Light Snow
4:45 AM 35.6 °F 29.2 °F 30.2 °F 81% 29.92 in 1.8 mi North 8.1 mph - 0.01 in Snow Light Snow
4:53 AM 34.0 °F 27.2 °F 30.9 °F 89% 29.93 in 1.8 mi North 8.1 mph - 0.01 in Snow Light Snow
4:59 AM 35.6 °F 28.6 °F 30.2 °F 81% 29.93 in 3.0 mi North 9.2 mph - 0.00 in Snow Light Snow
5:08 AM 35.6 °F 28.6 °F 30.2 °F 81% 29.93 in 3.0 mi North 9.2 mph - 0.00 in Snow Light Snow
5:45 AM 35.6 °F 28.0 °F 30.2 °F 81% 29.92 in 9.0 mi North 10.4 mph - 0.00 in   Overcast
5:53 AM 35.1 °F 27.4 °F 30.9 °F 85% 29.92 in 10.0 mi North 10.4 mph - 0.00 in   Overcast
6:25 AM 35.6 °F 28.6 °F 30.2 °F 81% 29.94 in 10.0 mi NNW 9.2 mph - N/A   Overcast
6:48 AM 35.6 °F 26.2 °F 30.2 °F 81% 29.94 in 10.0 mi North 15.0 mph 20.7 mph N/A   Overcast
6:53 AM 35.1 °F 25.5 °F 28.9 °F 78% 29.94 in 10.0 mi North 15.0 mph - N/A   Overcast
7:01 AM 33.8 °F 23.5 °F 28.4 °F 81% 29.94 in 10.0 mi North 16.1 mph 20.7 mph N/A   Overcast
7:53 AM 34.0 °F 24.6 °F 28.9 °F 82% 29.93 in 10.0 mi North 13.8 mph - N/A   Overcast
8:53 AM 34.0 °F 24.2 °F 26.1 °F 73% 29.94 in 10.0 mi North 15.0 mph - N/A   Overcast
9:53 AM 35.1 °F 26.4 °F 27.0 °F 72% 29.93 in 10.0 mi North 12.7 mph 21.9 mph N/A   Overcast
10:53 AM 35.1 °F 24.8 °F 26.1 °F 70% 29.92 in 10.0 mi North 17.3 mph 25.3 mph N/A   Overcast
11:53 AM 36.0 °F 27.1 °F 23.0 °F 59% 29.91 in 10.0 mi North 13.8 mph - N/A   Overcast
12:53 PM 37.0 °F 29.3 °F 21.9 °F 54% 29.89 in 10.0 mi North 11.5 mph - N/A   Overcast
1:53 PM 37.9 °F 32.7 °F 21.0 °F 51% 29.87 in 10.0 mi North 6.9 mph - N/A   Overcast
2:53 PM 39.0 °F 33.4 °F 21.0 °F 49% 29.84 in 10.0 mi NNE 8.1 mph - N/A   Overcast
3:53 PM 39.9 °F 35.1 °F 18.0 °F 41% 29.83 in 10.0 mi NNW 6.9 mph - N/A   Overcast
4:53 PM 39.9 °F 34.5 °F 18.0 °F 41% 29.83 in 10.0 mi NW 8.1 mph - N/A   Overcast
5:53 PM 37.0 °F 31.0 °F 18.0 °F 46% 29.82 in 10.0 mi NNW 8.1 mph - N/A   Overcast
6:53 PM 36.0 °F 33.3 °F 18.0 °F 48% 29.82 in 10.0 mi NNW 3.5 mph - N/A   Overcast
7:53 PM 35.1 °F 30.1 °F 17.1 °F 48% 29.82 in 10.0 mi North 5.8 mph - N/A   Overcast
8:53 PM 34.0 °F 26.0 °F 21.0 °F 59% 29.80 in 10.0 mi North 10.4 mph 18.4 mph 0.00 in   Overcast
9:53 PM 33.1 °F 23.4 °F 19.9 °F 59% 29.77 in 10.0 mi North 13.8 mph 19.6 mph N/A   Overcast
10:53 PM 32.0 °F 22.1 °F 19.9 °F 61% 29.74 in 10.0 mi North 13.8 mph - N/A   Overcast
11:53 PM 30.9 °F 22.2 °F 23.0 °F 72% 29.70 in 5.0 mi North 10.4 mph - 0.00 in Snow Light Snow